CW6666 Weather Reports


Display with metric or nautical units.
time (UTC)temp
F
wind
direction
speed
MPH
gust
MPH
rain 1hr
in
rain 24hr
in
rain mn
in
humidity
%
barometer
mb
20140725111352 77 304 0.0 0.0 0.00 0.66 0.66 94 1008.6
20140725110840 77 304 0.0 0.0 0.00 0.66 0.66 94 1008.6
20140725110342 78 304 0.0 0.0 0.01 0.66 0.66 94 1008.6
20140725105822 78 304 0.0 0.0 0.01 0.66 0.66 94 1008.5
20140725105410 77 304 0.0 0.0 0.01 0.66 0.66 94 1008.5
20140725104855 77 304 0.0 0.0 0.01 0.66 0.66 94 1008.5
20140725104335 77 304 0.0 0.0 0.01 0.66 0.66 94 1008.0
20140725103828 77 304 0.0 0.0 0.01 0.66 0.66 94 1008.0
20140725103405 77 304 0.0 0.0 0.01 0.66 0.66 94 1008.0
20140725102910 77 304 0.0 0.0 0.01 0.66 0.66 94 1008.2
20140725101910 77 304 0.0 0.0 0.01 0.66 0.66 94 1008.2
20140725101339 77 304 0.0 0.0 0.01 0.66 0.66 94 1008.4
20140725100825 77 304 0.0 0.0 0.01 0.66 0.66 94 1008.4
20140725100403 77 304 0.0 0.0 0.00 0.65 0.65 94 1008.4
20140725095825 77 304 0.0 0.0 0.00 0.65 0.65 94 1008.3
20140725094405 77 304 0.0 0.0 0.00 0.65 0.65 94 1008.0
20140725093835 77 304 0.0 0.0 0.00 0.65 0.65 94 1008.0
20140725092910 77 304 0.0 0.0 0.00 0.65 0.65 94 1007.9
20140725092338 77 304 0.0 0.0 0.00 0.65 0.65 94 1007.9
20140725091918 77 304 0.0 0.0 0.01 0.65 0.65 94 1007.9
20140725091354 77 304 0.0 0.0 0.01 0.65 0.65 94 1007.5
20140725090829 77 304 0.0 0.0 0.02 0.65 0.65 94 1007.5
20140725085835 77 304 0.0 0.0 0.04 0.65 0.65 93 1007.4
20140725085415 77 304 0.0 0.0 0.05 0.65 0.65 93 1007.4
20140725084857 77 304 0.0 0.0 0.06 0.65 0.65 93 1007.4
20140725084336 77 304 0.0 0.0 0.07 0.65 0.65 93 1007.1
20140725083829 77 304 0.0 0.0 0.08 0.65 0.65 93 1007.1
20140725082856 78 304 0.0 0.0 0.10 0.65 0.65 93 1007.1
20140725082341 78 304 0.0 0.0 0.12 0.65 0.65 93 1007.1
20140725081826 78 304 0.0 0.0 0.12 0.64 0.64 93 1007.1
20140725080346 78 304 0.0 0.0 0.14 0.63 0.63 93 1007.0
20140725075833 78 304 0.0 0.0 0.13 0.61 0.61 93 1007.0
20140725075418 78 304 0.0 1.0 0.13 0.60 0.60 93 1007.0
20140725074402 79 40 2.0 4.0 0.13 0.58 0.58 93 1006.8
20140725073825 79 360 2.0 3.0 0.12 0.57 0.57 93 1006.8
20140725072918 79 18 0.0 5.0 0.12 0.56 0.56 93 1006.4
20140725072343 79 19 3.0 6.0 0.10 0.54 0.54 93 1006.4
20140725071822 79 20 5.0 10.0 0.09 0.52 0.52 93 1006.4
20140725071352 79 30 4.0 10.0 0.10 0.51 0.51 92 1006.3
20140725070831 79 28 6.0 9.0 0.12 0.50 0.50 93 1006.3
20140725065916 79 28 5.0 7.0 0.19 0.48 0.48 92 1006.2
20140725065356 79 26 6.0 7.0 0.19 0.47 0.47 92 1006.2
20140725064851 80 289 0.0 0.0 0.18 0.45 0.45 93 1006.2
20140725064335 79 289 0.0 0.0 0.18 0.45 0.45 92 1005.9
20140725063821 79 289 0.0 0.0 0.18 0.45 0.45 92 1005.9
20140725063356 79 289 0.0 0.0 0.17 0.44 0.44 92 1005.9
20140725062845 79 289 0.0 0.0 0.17 0.44 0.44 92 1005.9
20140725062338 80 289 0.0 0.0 0.17 0.44 0.44 92 1005.9
20140725061839 80 203 0.0 1.0 0.17 0.44 0.44 92 1005.9
20140725061319 80 203 0.0 1.0 0.14 0.41 0.41 91 1005.9
20140725060915 81 203 0.0 2.0 0.13 0.40 0.40 92 1005.9
20140725060350 81 203 0.0 2.0 0.06 0.33 0.33 92 1005.9
20140725055823 81 203 0.0 0.0 0.02 0.29 0.29 92 1005.9
20140725054913 81 203 0.0 2.0 0.00 0.27 0.27 92 1005.9
20140725054350 81 203 1.0 2.0 0.00 0.27 0.27 92 1005.5
20140725053829 81 200 0.0 0.0 0.00 0.27 0.27 93 1005.5
20140725052359 81 200 0.0 0.0 0.02 0.27 0.27 92 1005.7
20140725051843 80 200 0.0 0.0 0.06 0.27 0.27 92 1005.7
20140725051418 80 200 0.0 0.0 0.10 0.27 0.27 92 1005.5
20140725050846 80 200 0.0 0.0 0.20 0.27 0.27 93 1005.5
20140725050409 80 200 0.0 0.0 0.27 0.27 0.27 92 1005.5
20140725045849 80 200 0.0 0.0 0.27 0.27 0.27 92 1005.4
20140725045320 80 200 0.0 0.0 0.27 0.27 0.27 92 1005.4
20140725044352 79 200 0.0 0.0 0.27 0.27 0.27 92 1005.4
20140725043343 78 200 0.0 2.0 0.27 0.27 0.27 92 1005.4
20140725042819 78 200 1.0 6.0 0.27 0.27 0.27 92 1005.9
20140725042346 79 194 4.0 11.0 0.26 0.26 0.26 91 1005.9
20140725041831 79 125 6.0 12.0 0.21 0.21 0.21 91 1005.9
20140725041415 80 121 7.0 21.0 0.17 0.17 0.17 91 1005.9
20140725040900 81 123 12.0 21.0 0.10 0.10 0.10 90 1005.9
20140725040329 82 111 16.0 21.0 0.01 0.01 0.01 90 1005.9
20140725035353 84 74 8.0 9.0 0.00 0.00 0.00 87 1005.9
20140725034842 84 85 4.0 6.0 0.00 0.00 0.00 86 1005.9
20140725034416 84 102 2.0 5.0 0.00 0.00 0.00 85 1005.9
20140725033900 84 95 4.0 4.0 0.00 0.00 0.00 86 1005.9
20140725032854 83 103 3.0 4.0 0.00 0.00 0.00 85 1005.8
20140725032339 83 91 0.0 6.0 0.00 0.00 0.00 85 1005.8
20140725031820 83 119 5.0 6.0 0.00 0.00 0.00 85 1005.8
20140725031354 83 146 3.0 7.0 0.00 0.00 0.00 85 1005.9
20140725030846 83 130 2.0 12.0 0.00 0.00 0.00 85 1005.9
20140725025832 85 113 5.0 10.0 0.00 0.00 0.00 85 1006.3
20140725024917 85 107 6.0 11.0 0.00 0.00 0.00 85 1006.3
20140725024417 85 135 5.0 11.0 0.00 0.00 0.00 84 1006.1
20140725023847 86 140 4.0 10.0 0.00 0.00 0.00 84 1006.1
20140725022848 88 104 7.0 10.0 0.00 0.00 0.00 80 1006.0
20140725022418 88 101 7.0 9.0 0.00 0.00 0.00 83 1006.0
20140725021852 88 91 7.0 9.0 0.00 0.00 0.00 83 1006.0
20140725021351 88 94 7.0 9.0 0.00 0.00 0.00 81 1006.0
20140725020844 88 108 7.0 10.0 0.00 0.00 0.00 83 1006.0
20140725020410 88 104 9.0 10.0 0.00 0.00 0.00 82 1006.0
20140725015830 88 92 8.0 10.0 0.00 0.00 0.00 81 1006.4
20140725015417 88 90 9.0 10.0 0.00 0.00 0.00 81 1006.4
20140725014349 87 107 9.0 11.0 0.00 0.00 0.00 82 1006.5
20140725013823 87 89 9.0 11.0 0.00 0.00 0.00 83 1006.5
20140725013355 87 82 8.0 11.0 0.00 0.00 0.00 82 1006.5
20140725012832 87 88 7.0 11.0 0.00 0.00 0.00 82 1006.7
20140725011918 87 92 9.0 11.0 0.00 0.00 0.00 83 1006.7
20140725011350 87 101 9.0 11.0 0.00 0.00 0.00 82 1006.9
20140725010830 87 98 9.0 11.0 0.00 0.00 0.00 82 1006.9
20140725010359 88 94 10.0 11.0 0.00 0.00 0.00 83 1006.9
20140725005833 87 85 9.0 11.0 0.00 0.00 0.00 82 1007.0
20140725005356 87 77 8.0 12.0 0.00 0.00 0.00 81 1007.0
20140725004830 87 74 9.0 12.0 0.00 0.00 0.00 82 1007.0
20140725004355 87 90 8.0 11.0 0.00 0.00 0.00 82 1006.9
20140725003841 88 83 7.0 11.0 0.00 0.00 0.00 82 1006.9
20140725003408 88 75 7.0 11.0 0.00 0.00 0.00 84 1006.9
20140725002852 88 77 7.0 11.0 0.00 0.00 0.00 83 1006.9
20140725002324 87 92 7.0 11.0 0.00 0.00 0.00 82 1006.9
20140725001348 87 84 10.0 11.0 0.00 0.00 0.00 84 1006.9
20140725000828 87 82 8.0 10.0 0.00 0.00 0.00 83 1006.9
20140724235849 86 80 7.0 12.0 0.00 0.00 0.00 85 1006.9
20140724235416 86 78 11.0 12.0 0.00 0.00 0.00 86 1006.9
20140724234851 85 66 7.0 11.0 0.00 0.00 0.00 87 1006.9
20140724234327 85 65 10.0 12.0 0.00 0.00 0.00 86 1006.9
20140724233354 86 75 9.0 10.0 0.00 0.00 0.00 86 1006.9
20140724232835 86 87 8.0 11.0 0.00 0.00 0.00 84 1006.9
20140724232400 86 86 11.0 11.0 0.00 0.00 0.00 84 1006.9
20140724231827 86 82 7.0 10.0 0.00 0.00 0.00 84 1006.9
20140724231416 86 88 8.0 9.0 0.00 0.00 0.00 84 1006.8
20140724230846 86 84 8.0 9.0 0.00 0.00 0.00 84 1006.8
20140724230413 86 77 6.0 9.0 0.00 0.00 0.00 84 1006.8
20140724225842 86 80 8.0 9.0 0.00 0.00 0.00 84 1006.8
20140724225416 86 76 7.0 10.0 0.00 0.00 0.00 83 1006.8
20140724224844 86 70 8.0 11.0 0.00 0.00 0.00 83 1006.8
20140724224329 86 78 7.0 11.0 0.00 0.00 0.00 83 1006.5
20140724223830 86 79 10.0 12.0 0.00 0.00 0.00 84 1006.5
20140724223407 86 78 10.0 12.0 0.00 0.00 0.00 84 1006.5
20140724222839 86 62 9.0 11.0 0.00 0.00 0.00 85 1006.4
20140724222412 86 82 9.0 12.0 0.00 0.00 0.00 84 1006.4
20140724221843 85 71 10.0 12.0 0.00 0.00 0.00 84 1006.4
20140724221410 85 73 10.0 13.0 0.00 0.00 0.00 84 1006.4
20140724220838 85 69 11.0 13.0 0.00 0.00 0.00 84 1006.4
20140724220357 85 80 9.0 12.0 0.00 0.00 0.00 85 1006.4
20140724215826 85 82 10.0 12.0 0.00 0.00 0.00 85 1006.0
20140724215401 85 73 10.0 12.0 0.00 0.00 0.00 85 1006.0
20140724214846 85 72 10.0 10.0 0.00 0.00 0.00 86 1006.0
20140724214331 85 89 8.0 11.0 0.00 0.00 0.00 86 1006.0
20140724213828 85 75 10.0 11.0 0.00 0.00 0.00 85 1006.0
20140724213357 85 74 10.0 12.0 0.00 0.00 0.00 85 1006.0
20140724212835 85 67 10.0 12.0 0.00 0.00 0.00 85 1006.0
20140724212403 85 72 7.0 11.0 0.00 0.00 0.00 85 1006.0
20140724211841 85 78 8.0 12.0 0.00 0.00 0.00 85 1006.0
20140724211416 85 74 9.0 12.0 0.00 0.00 0.00 85 1005.9
20140724210852 84 65 10.0 11.0 0.00 0.00 0.00 86 1005.9
20140724210333 84 78 10.0 12.0 0.00 0.00 0.00 85 1005.9
20140724205356 84 85 10.0 12.0 0.00 0.00 0.00 86 1005.9
20140724204837 84 74 10.0 12.0 0.00 0.00 0.00 86 1005.9
20140724204417 84 71 10.0 12.0 0.00 0.00 0.00 85 1005.7
20140724203350 84 78 11.0 13.0 0.00 0.00 0.00 85 1005.7
20140724202830 84 74 9.0 12.0 0.00 0.00 0.00 86 1005.6
20140724202409 83 76 10.0 12.0 0.00 0.00 0.00 85 1005.6
20140724201850 83 71 11.0 12.0 0.00 0.00 0.00 86 1005.6
20140724200351 83 60 10.0 12.0 0.00 0.00 0.00 87 1005.3
20140724195830 83 67 10.0 11.0 0.00 0.00 0.00 87 1004.8
20140724195411 83 52 8.0 10.0 0.00 0.00 0.00 88 1004.8
20140724194850 83 50 7.0 10.0 0.00 0.00 0.00 88 1004.8
20140724194319 83 44 8.0 10.0 0.00 0.00 0.00 88 1004.6
20140724193912 83 39 6.0 10.0 0.00 0.00 0.00 88 1004.6
20140724193350 83 55 7.0 11.0 0.00 0.00 0.00 87 1004.6
20140724192834 83 48 6.0 11.0 0.00 0.00 0.00 87 1004.4
20140724192408 83 63 9.0 12.0 0.00 0.00 0.00 87 1004.4
20140724191859 83 63 10.0 12.0 0.00 0.00 0.00 88 1004.4
20140724191319 83 64 8.0 12.0 0.00 0.00 0.00 88 1004.3
20140724190901 83 59 10.0 12.0 0.00 0.00 0.00 87 1004.3
20140724190334 83 63 9.0 13.0 0.00 0.00 0.00 88 1004.3
20140724185353 83 61 11.0 13.0 0.00 0.00 0.00 88 1004.3
20140724184839 83 59 10.0 11.0 0.00 0.00 0.00 88 1004.3
20140724184412 83 71 5.0 7.0 0.00 0.00 0.00 87 1004.2
20140724183853 83 59 6.0 8.0 0.00 0.00 0.00 87 1004.2
20140724183342 83 62 6.0 9.0 0.00 0.00 0.00 87 1004.2
20140724182827 83 59 8.0 9.0 0.00 0.00 0.00 88 1004.3
20140724181903 83 74 6.0 7.0 0.00 0.00 0.00 87 1004.3
20140724181320 83 82 5.0 7.0 0.00 0.00 0.00 87 1004.3
20140724180914 83 71 6.0 7.0 0.00 0.00 0.00 87 1004.3
20140724175405 83 63 7.0 9.0 0.00 0.00 0.00 87 1004.5
20140724174847 83 83 6.0 9.0 0.00 0.00 0.00 87 1004.5
20140724174330 83 67 7.0 10.0 0.00 0.00 0.00 87 1004.7
20140724173819 83 76 6.0 10.0 0.00 0.00 0.00 87 1004.7
20140724173408 83 76 5.0 9.0 0.00 0.00 0.00 87 1004.7
20140724172345 83 88 8.0 10.0 0.00 0.00 0.00 87 1005.0
20140724171823 83 78 8.0 10.0 0.00 0.00 0.00 86 1005.0
20140724171411 83 83 8.0 12.0 0.00 0.00 0.00 86 1005.0
20140724170911 83 80 9.0 12.0 0.00 0.00 0.00 86 1005.0
20140724170347 83 79 7.0 12.0 0.00 0.00 0.00 87 1005.0
20140724165815 83 92 11.0 12.0 0.00 0.00 0.00 86 1005.4
20140724165357 84 79 10.0 13.0 0.00 0.00 0.00 86 1005.4
20140724164837 84 84 12.0 13.0 0.00 0.00 0.00 87 1005.4
20140724161856 84 86 10.0 12.0 0.00 0.00 0.00 87 1005.4
20140724161335 84 100 10.0 13.0 0.00 0.00 0.00 86 1005.4
20140724160820 84 82 12.0 13.0 0.00 0.00 0.00 86 1005.4
20140724155830 84 84 11.0 13.0 0.00 0.00 0.00 87 1005.4
20140724155320 84 84 10.0 13.0 0.00 0.00 0.00 87 1005.4
20140724154829 84 79 11.0 13.0 0.00 0.00 0.00 86 1005.4
20140724154325 84 84 10.0 13.0 0.00 0.00 0.00 86 1005.6
20140724153833 84 83 11.0 13.0 0.00 0.00 0.00 86 1005.6
20140724153325 84 98 11.0 13.0 0.00 0.00 0.00 86 1005.6
20140724152831 84 99 10.0 13.0 0.00 0.00 0.00 86 1005.8
20140724152325 84 83 12.0 13.0 0.00 0.00 0.00 86 1005.8
20140724151833 84 79 11.0 12.0 0.00 0.00 0.00 86 1005.8
20140724151326 84 88 8.0 11.0 0.00 0.00 0.00 86 1005.9
20140724150836 84 96 9.0 11.0 0.00 0.00 0.00 86 1005.9
20140724150326 84 117 6.0 11.0 0.00 0.00 0.00 86 1005.9
20140724145830 84 101 9.0 11.0 0.00 0.00 0.00 85 1006.0
20140724145323 84 96 10.0 12.0 0.00 0.00 0.00 85 1006.0
20140724144830 84 91 9.0 12.0 0.00 0.00 0.00 85 1006.0
20140724144324 84 82 11.0 13.0 0.00 0.00 0.00 85 1006.1
20140724143832 84 89 9.0 13.0 0.00 0.00 0.00 86 1006.1
20140724143327 84 90 11.0 13.0 0.00 0.00 0.00 85 1006.1
20140724142835 84 90 8.0 12.0 0.00 0.00 0.00 86 1006.3
20140724142329 84 88 8.0 12.0 0.00 0.00 0.00 86 1006.3
20140724141835 84 91 9.0 11.0 0.00 0.00 0.00 86 1006.3
20140724141331 84 101 7.0 11.0 0.00 0.00 0.00 85 1006.4
20140724140817 84 92 9.0 12.0 0.00 0.00 0.00 85 1006.4
20140724140328 84 89 10.0 12.0 0.00 0.00 0.00 85 1006.4
20140724135829 84 98 8.0 11.0 0.00 0.00 0.12 85 1006.4
20140724135417 84 87 8.0 11.0 0.00 0.00 0.12 85 1006.4
20140724134900 84 92 10.0 11.0 0.00 0.00 0.12 84 1006.4
20140724134343 84 89 8.0 12.0 0.00 0.00 0.12 85 1006.5
20140724133827 84 82 9.0 12.0 0.00 0.00 0.12 86 1006.5
20140724132901 84 84 11.0 12.0 0.00 0.00 0.12 85 1006.5
20140724132344 84 96 10.0 12.0 0.00 0.00 0.12 86 1006.5
20140724131821 84 72 12.0 15.0 0.00 0.00 0.12 86 1006.5
20140724131406 84 86 12.0 15.0 0.00 0.00 0.12 86 1006.4
20140724130831 84 80 11.0 13.0 0.00 0.00 0.12 86 1006.4
20140724125907 84 90 10.0 13.0 0.00 0.00 0.12 86 1006.5
20140724125355 84 76 10.0 13.0 0.00 0.00 0.12 86 1006.5
20140724124830 84 107 8.0 13.0 0.00 0.00 0.12 85 1006.5
20140724124353 84 79 12.0 13.0 0.00 0.00 0.12 85 1006.5
20140724123822 84 92 12.0 14.0 0.00 0.00 0.12 85 1006.5
20140724122903 84 80 11.0 12.0 0.00 0.00 0.12 85 1006.5
20140724122337 84 82 9.0 15.0 0.00 0.00 0.12 85 1006.5
20140724121822 84 70 14.0 15.0 0.00 0.00 0.12 85 1006.5
20140724120856 84 91 12.0 14.0 0.00 0.00 0.12 85 1006.4
20140724120339 84 76 10.0 14.0 0.00 0.00 0.12 86 1006.4
20140724115917 84 78 10.0 14.0 0.00 0.00 0.12 86 1006.3
20140724115348 84 97 11.0 13.0 0.00 0.00 0.12 86 1006.3
20140724114818 84 90 9.0 13.0 0.00 0.00 0.12 86 1006.3
20140724114347 84 93 11.0 13.0 0.00 0.00 0.12 86 1006.1
20140724113821 84 71 10.0 11.0 0.00 0.00 0.12 86 1006.1
20140724112420 84 69 10.0 13.0 0.00 0.13 0.12 86 1005.9
20140724111848 84 68 10.0 13.0 0.00 0.13 0.12 85 1005.9